Location: Eboldshausen
(51.7766°N, 10.0050°E)
Time: 08:15:37
(UTC+00:00)

COSMOS 2441 - Pass Details

Date: 15 June 2024
Orbit: 706 x 728 km, 98.2° (Epoch: 22 July)

Event Time Altitude Azimuth Distance (km) Brightness Sun altitude
Rises 01:39:50 0° 15° (NNE) 3,117 9.3 -8.9°
Reaches altitude 10° 01:42:06 10° 17° (NNE) 2,196 8.3 -8.8°
Maximum altitude 01:46:56 80° 104° (ESE) 729 4.5 -8.3°
Drops below altitude 10° 01:51:44 10° 192° (SSW) 2,190 6.3 -7.9°
Enters shadow 01:52:13 - 192° (SSW) 2,382 6.5 -7.9°
